Regional Weather Roundup
Issued by NWS

Home | Current Version | Previous Version | Graphics & Text | Print | Product List | Glossary On
Versions: 1 2 3 4 5 6 7 8 9 10 11 12 13 14 15 16 17 18 19 20 21 22 23 24 25 26 27 28 29 30 31 32 33 34 35 36 37 38 39 40 41 42 43 44 45 46 47 48 49 50
000
ASUS44 KMEG 252300
RWRTN
TENNESSEE HOURLY STATE WEATHER ROUNDUP
NATIONAL WEATHER SERVICE MEMPHIS TN
600 PM CDT THU AUG 25 2016

TNZ002-004-019-021-049-052-054-088>092-260000-
WEST TENNESSEE

CITY           SKY/WX    TMP DP  RH WIND       PRES   REMARKS
MEMPHIS INTL   CLOUDY    79  72  79 CALM      30.05F
NWS MEMPHIS      N/A     80 N/A N/A MISG        N/A
JACKSON        MOSUNNY   86  78  77 N5        30.07R HX  98
DYERSBURG      CLOUDY    91  77  62 MISG      30.05R HX 105
UNION CITY     SUNNY     90  79  70 CALM      30.05R HX 105
PARIS          SUNNY     88  79  74 CALM      30.07F HX 102
LEXINGTON      SUNNY     82  77  83 CALM      30.07S HX  91
$$

TNZ008-025-027-028-033-062-065-066-260000-
NORTH MIDDLE TENNESSEE

CITY           SKY/WX    TMP DP  RH WIND       PRES   REMARKS
NASHVILLE      PTSUNNY   88  75  65 SE3       30.08F HX  97
CLARKSVILLE    CLOUDY    88  74  63 SW5       30.07S HX  96
COOKEVILLE     SUNNY     88  75  66 N3        30.10F HX  97
CROSSVILLE     CLOUDY    81  71  71 CALM      30.17F
$$

TNZ061-075-076-078-094-096-097-260000-
SOUTH MIDDLE TENNESSEE

CITY           SKY/WX    TMP DP  RH WIND       PRES   REMARKS
TULLAHOMA      SUNNY     84  72  65 VRB5      30.11F
WINCHESTER     SUNNY     91  72  52 CALM      30.09F HX  98
MCMINNVILLE    SUNNY     88  75  66 NW6       30.11F HX  97
COLUMBIA       MOSUNNY   88  79  74 VRB3      30.08R HX 102
SHELBYVILLE    SUNNY     90  75  62 CALM      30.09F HX 100
$$

TNZ017-018-042-046-047-260000-
NORTHEAST TENNESSEE

CITY           SKY/WX    TMP DP  RH WIND       PRES   REMARKS
TRI CITIES     MOSUNNY   87  68  52 W7        30.14S HX  90
$$

TNZ012-013-036-069-073-074-260000-
CENTRAL EAST TENNESSEE

CITY           SKY/WX    TMP DP  RH WIND       PRES   REMARKS
KNOXVILLE      MOSUNNY   90  68  48 NW6       30.10R HX  94
$$

TNZ083-085-099-260000-
SOUTHEAST TENNESSEE

CITY           SKY/WX    TMP DP  RH WIND       PRES   REMARKS
CHATTANOOGA    MOSUNNY   92  68  45 NW3       30.08F HX  96
$$

SKY/WX REPORTED AS FAIR MEANS FEW OR NO CLOUDS BELOW
12 THOUSAND FEET.




USA.gov is the U.S. government's official web portal to all federal, state and local government web resources and services.